Weather past 2 weeks in Malakal, South Sudan

Now
95 °F

Sunny.


Feels Like: 94 °F
Forecast: 74 / 88 °F
Wind: 8 mph from Southwest

Location: Khartoum Airport

Current Time: Aug 21, 2014 at 7:36:41 PM

Latest Report: Aug 21, 2014 at 7:00 PM


Visibility: 10 mi

Pressure: 29.77 "Hg

Humidity: 30%

Dew point: 59 °F

Location of MalakalLocation

Historic Weather in Malakal — Graph

°F

Malakal temperature yesterday

Maximum temperature yesterday: 84 °F (at 12:00 AM)
Minimum temperature yesterday: 77 °F (at 6:00 AM)
Average temperature yesterday: 82 °F

Past Weeks' High & Low Weather Summary

 TemperatureHumidityPressure
High122 °F (Aug 8, 5:00 PM)100% (Aug 10, 7:00 AM)30.07 "Hg (Aug 10, 7:00 AM)
Low73 °F (Aug 9, 3:00 AM)17% (Aug 10, 11:00 AM)29.74 "Hg (Aug 13, 5:30 PM)
Average87 °F54%29.88 "Hg
* Reported Aug 6 6:00 PM — Aug 21 6:30 PM, Malakal, Weather by CustomWeather, © 2014

Note: Actual official high and low records may vary slightly from our data, if they occured in-between our weather recording intervals... More about our weather records

Advertising

Malakal weather history for previous 24 hours

 ConditionsComfort  
Time TempWeatherWind HumidityBarometerVisibility
6:30 PM
Aug 21
N/ASunny.12 mphN/A29.77 "Hg10 mi
6:00 PM97 °FSunny.12 mph27%29.77 "Hg10 mi
5:30 PMN/ASunny.12 mphN/A29.77 "Hg10 mi
5:00 PM99 °FSunny.8 mph24%29.80 "Hg10 mi
4:30 PMN/ASunny.8 mphN/A29.80 "Hg10 mi
4:00 PM97 °FSunny.8 mph27%29.83 "Hg10 mi
3:30 PMN/ASunny.12 mphN/A29.83 "Hg10 mi
2:30 PMN/ASunny.12 mphN/A29.86 "Hg10 mi
2:00 PM95 °FSunny.9 mph30%29.86 "Hg10 mi
1:30 PMN/ASunny.10 mphN/A29.86 "Hg10 mi
1:00 PM93 °FSunny.9 mph32%29.86 "Hg10 mi
12:30 PMN/ASunny.12 mphN/A29.89 "Hg10 mi
12:00 PM90 °FSunny.12 mph41%29.89 "Hg10 mi
11:30 AMN/ASunny.9 mphN/A29.92 "Hg10 mi
11:00 AM88 °FSunny.12 mph38%29.92 "Hg10 mi
10:30 AMN/ASunny.9 mphN/A29.92 "Hg10 mi
10:00 AM84 °FSunny.7 mph48%29.92 "Hg10 mi
9:30 AMN/ASunny.6 mphN/A29.92 "Hg10 mi
9:00 AM81 °FSunny.9 mph62%29.92 "Hg10 mi
8:30 AMN/ASunny.9 mphN/A29.92 "Hg10 mi
8:00 AM79 °FSunny.7 mph74%29.89 "Hg10 mi
7:00 AM77 °FSunny.8 mph79%29.89 "Hg10 mi
6:30 AMN/AClear.5 mphN/A29.86 "Hg10 mi
6:00 AM77 °FClear.8 mph74%29.86 "Hg10 mi
5:30 AMN/AClear.8 mphN/A29.86 "Hg10 mi
5:00 AM77 °FClear.7 mph69%29.86 "Hg10 mi
4:30 AMN/AClear.8 mphN/A29.83 "Hg10 mi
3:30 AMN/AClear.9 mphN/A29.83 "Hg10 mi
3:00 AM79 °FClear.5 mph70%29.89 "Hg10 mi
2:30 AMN/AClear.5 mphN/A29.89 "Hg10 mi
2:00 AM79 °FClear.7 mph70%29.89 "Hg10 mi
1:30 AMN/AClear.9 mphN/A29.92 "Hg10 mi
1:00 AM81 °FClear.9 mph70%29.92 "Hg10 mi
12:30 AMN/AClear.9 mphN/A29.92 "Hg10 mi
12:00 AM81 °FClear.8 mph62%29.89 "Hg10 mi
11:30 PM
Aug 20
N/AClear.8 mphN/A29.89 "Hg10 mi
11:00 PM82 °FClear.7 mph58%29.89 "Hg10 mi
10:30 PMN/AClear.7 mphN/A29.89 "Hg10 mi
10:00 PM82 °FClear.7 mph58%29.89 "Hg10 mi
9:30 PMN/AClear.8 mphN/A29.86 "Hg10 mi
9:00 PM82 °FClear.2 mph58%29.89 "Hg10 mi
8:30 PMN/AClear.2 mphN/A29.89 "Hg10 mi
8:00 PM82 °FClear.5 mph58%29.86 "Hg10 mi
7:30 PMN/AClear.5 mphN/A29.86 "Hg10 mi
7:00 PM82 °FSunny.9 mph58%29.86 "Hg10 mi
Weather by CustomWeather, © 2014

See weather overviewHow to use our weather pages